2023/04/29 00:00:00, 0.0,11.3
2023/04/29 00:10:00, 0.0,11.1
2023/04/29 00:20:00, 0.0,11.1
2023/04/29 00:30:00, 0.0,10.6
2023/04/29 00:40:00, 0.0,10.6
2023/04/29 00:50:00, 0.0,11.5
2023/04/29 01:00:00, 0.0,11.3
2023/04/29 01:10:00, 0.0,10.7
2023/04/29 01:20:00, 0.0,10.5
2023/04/29 01:30:00, 0.0,12.0
2023/04/29 01:40:00, 0.0,13.3
2023/04/29 01:50:00, 0.0,13.6
2023/04/29 02:00:00, 0.0,13.4
2023/04/29 02:10:00, 0.0,13.2
2023/04/29 02:20:00, 0.0,13.1
2023/04/29 02:30:00, 0.0,13.5
2023/04/29 02:40:00, 0.0,12.8
2023/04/29 02:50:00, 0.0,12.7
2023/04/29 03:00:00, 0.0,13.2
2023/04/29 03:10:00, 0.0,13.4
2023/04/29 03:20:00, 0.0,13.5
2023/04/29 03:30:00, 0.0,13.7
2023/04/29 03:40:00, 0.0,13.6
2023/04/29 03:50:00, 0.0,14.2
2023/04/29 04:00:00, 0.0,14.2
2023/04/29 04:10:00, 0.0,14.2
2023/04/29 04:20:00, 0.0,14.1
2023/04/29 04:30:00, 0.0,14.5
2023/04/29 04:40:00, 0.0,14.5
2023/04/29 04:50:00, 0.0,14.6
2023/04/29 05:00:00, 0.0,14.2
2023/04/29 05:10:00, 0.0,14.5
2023/04/29 05:20:00, 0.0,14.2
2023/04/29 05:30:00, 0.0,14.1
2023/04/29 05:40:00, 0.0,13.9
2023/04/29 05:50:00, 0.0,13.2
2023/04/29 06:00:00, 0.0,13.5
2023/04/29 06:10:00, 0.0,14.1
2023/04/29 06:20:00, 0.0,14.6
2023/04/29 06:30:00, 0.0,15.2
2023/04/29 06:40:00, 0.0,15.8
2023/04/29 06:50:00, 0.0,16.2
2023/04/29 07:00:00, 0.0,16.9
2023/04/29 07:10:00, 0.0,17.2
2023/04/29 07:20:00, 0.0,17.6
2023/04/29 07:30:00, 0.0,17.2
2023/04/29 07:40:00, 0.0,18.0
2023/04/29 07:50:00, 0.0,18.2
2023/04/29 08:00:00, 0.0,18.0
2023/04/29 08:10:00, 0.0,17.7
2023/04/29 08:20:00, 0.0,19.3
2023/04/29 08:30:00, 0.5,20.8
2023/04/29 08:40:00, 0.0,18.9
2023/04/29 08:50:00, 0.0,20.2
2023/04/29 09:00:00, 0.0,21.1
2023/04/29 09:10:00, 0.0,21.2
2023/04/29 09:20:00, 0.0,21.4
2023/04/29 09:30:00, 6.0,20.1
2023/04/29 09:40:00,17.9,19.6
2023/04/29 09:50:00, 0.0,19.9
2023/04/29 10:00:00, 8.5,20.3
2023/04/29 10:10:00, 0.0,20.1
2023/04/29 10:20:00, 0.0,20.4
2023/04/29 10:30:00, 0.9,22.1
2023/04/29 10:40:00,21.2,21.1
2023/04/29 10:50:00,13.1,20.3
2023/04/29 11:00:00, 6.7,20.3
2023/04/29 11:10:00, 0.0,20.4
2023/04/29 11:20:00, 5.3,20.3
2023/04/29 11:30:00, 0.0,19.6
2023/04/29 11:40:00, 0.0,19.6
2023/04/29 11:50:00, 0.0,19.5
2023/04/29 12:00:00, 0.0,20.4
2023/04/29 12:10:00, 0.0,20.1
2023/04/29 12:20:00, 0.0,20.2
2023/04/29 12:30:00, 0.0,20.4
2023/04/29 12:40:00, 0.0,20.0
2023/04/29 12:50:00, 0.0,20.2
2023/04/29 13:00:00, 0.0,20.1
2023/04/29 13:10:00, 0.2,20.2
2023/04/29 13:20:00,13.5,20.1
2023/04/29 13:30:00, 0.2,20.0
2023/04/29 13:40:00, 1.4,19.8
2023/04/29 13:50:00, 1.2,19.6
2023/04/29 14:00:00, 4.0,19.6
2023/04/29 14:10:00, 1.2,19.8
2023/04/29 14:20:00,---,19.7
2023/04/29 14:30:00, 2.7,19.8
2023/04/29 14:40:00,15.9,19.2
2023/04/29 14:50:00, 5.8,18.9
2023/04/29 15:00:00, 8.0,18.8
2023/04/29 15:10:00,17.6,18.7
2023/04/29 15:20:00,11.8,18.7
2023/04/29 15:30:00, 2.2,17.5
2023/04/29 15:40:00, 6.8,16.8
2023/04/29 15:50:00, 8.7,16.7
2023/04/29 16:00:00,26.8,16.9
2023/04/29 16:10:00,31.3,17.6
2023/04/29 16:20:00,27.2,18.0
2023/04/29 16:30:00,29.3,18.4
2023/04/29 16:40:00,32.9,18.6
2023/04/29 16:50:00,23.8,18.7
2023/04/29 17:00:00,---,18.6
2023/04/29 17:10:00,15.3,18.5
2023/04/29 17:20:00,22.1,18.4
2023/04/29 17:30:00, 3.0,18.3
2023/04/29 17:40:00,10.4,17.3
2023/04/29 17:50:00,32.0,17.3
2023/04/29 18:00:00,23.3,17.6
2023/04/29 18:10:00,25.8,18.1
2023/04/29 18:20:00,22.0,18.2
2023/04/29 18:30:00,---,18.3
2023/04/29 18:40:00, 0.0,18.0
2023/04/29 18:50:00, 7.1,17.9
2023/04/29 19:00:00,10.4,18.1
2023/04/29 19:10:00,---,17.7
2023/04/29 19:20:00, 7.8,17.7
2023/04/29 19:30:00,13.1,18.0
2023/04/29 19:40:00,13.2,18.3
2023/04/29 19:50:00,18.0,18.3
2023/04/29 20:00:00,14.4,18.6
2023/04/29 20:10:00,15.0,18.0
2023/04/29 20:20:00, 6.8,18.6
2023/04/29 20:30:00, 6.7,18.9
2023/04/29 20:40:00, 5.9,18.6
2023/04/29 20:50:00,11.1,19.1
2023/04/29 21:00:00,14.8,19.2
2023/04/29 21:10:00,14.4,18.8
2023/04/29 21:20:00, 3.8,18.9
2023/04/29 21:30:00, 7.3,18.8
2023/04/29 21:40:00, 6.9,18.4
2023/04/29 21:50:00, 7.3,18.3
2023/04/29 22:00:00, 4.4,17.6
2023/04/29 22:10:00, 2.3,18.1
2023/04/29 22:20:00, 5.6,17.7
2023/04/29 22:30:00, 6.4,17.7
2023/04/29 22:40:00, 2.7,17.7
2023/04/29 22:50:00, 2.6,17.5
2023/04/29 23:00:00, 2.6,17.2
2023/04/29 23:10:00,20.7,16.5
2023/04/29 23:20:00,32.8,16.0
2023/04/29 23:30:00,42.0,15.7
2023/04/29 23:40:00, 9.7,15.9
2023/04/29 23:50:00, 0.5,15.7
